THY3890 LTAC-LTBR

Flight info

Callsign THY3890
Flight time 0h 36m
Altitude 28000
Route UMRUN G8 EKMEL
Aircraft B738/M-SDE2E3FGHIRWXY/LB1

Departure

Time 2026-04-17 22:52
Airport Esenboğa International Airport (LTAC)

Arrival

Time 2026-04-17 23:28
Airport Bursa Yenişehir Airport (LTBR)
Time Latitude Longitude Altitude Speed Heading
2026-04-17 22:28 40.12530 32.99941 3133 ft 0 kts 180°
2026-04-17 22:40 40.12531 32.99941 3161 ft 2 kts 180°
2026-04-17 22:40 40.12556 32.99942 3133 ft 4 kts 180°
2026-04-17 22:41 40.12581 32.99943 3133 ft 4 kts 203°
2026-04-17 22:41 40.12593 32.99962 3133 ft 3 kts 269°
2026-04-17 22:41 40.12594 32.99985 3133 ft 6 kts 236°
2026-04-17 22:46 40.12591 32.99973 3133 ft 3 kts 257°
2026-04-17 22:46 40.12594 32.99909 3133 ft 11 kts 272°
2026-04-17 22:46 40.12593 32.99784 3133 ft 15 kts 259°
2026-04-17 22:47 40.12525 32.99691 3133 ft 14 kts 216°
2026-04-17 22:47 40.12446 32.99616 3133 ft 14 kts 216°
2026-04-17 22:47 40.12372 32.99544 3133 ft 13 kts 216°
2026-04-17 22:47 40.12300 32.99476 3133 ft 13 kts 216°
2026-04-17 22:48 40.12229 32.99408 3133 ft 12 kts 216°
2026-04-17 22:48 40.12156 32.99338 3133 ft 15 kts 216°
2026-04-17 22:48 40.12057 32.99244 3133 ft 20 kts 216°
2026-04-17 22:48 40.11935 32.99128 3133 ft 22 kts 216°
2026-04-17 22:49 40.11813 32.99010 3134 ft 22 kts 216°
2026-04-17 22:49 40.11703 32.98905 3133 ft 11 kts 217°
2026-04-17 22:49 40.11684 32.98840 3133 ft 8 kts 291°
2026-04-17 22:49 40.11718 32.98780 3133 ft 8 kts 307°
2026-04-17 22:50 40.11758 32.98709 3133 ft 11 kts 306°
2026-04-17 22:50 40.11811 32.98615 3134 ft 14 kts 306°
2026-04-17 22:50 40.11870 32.98510 3135 ft 12 kts 311°
2026-04-17 22:50 40.11926 32.98507 3135 ft 3 kts 36°
2026-04-17 22:51 40.11938 32.98520 3135 ft 3 kts 37°
2026-04-17 22:51 40.12056 32.98632 3136 ft 56 kts 36°
2026-04-17 22:51 40.12581 32.99132 3133 ft 129 kts 36°
2026-04-17 22:51 40.13429 32.99952 3456 ft 159 kts 38°
2026-04-17 22:52 40.14297 33.00860 4238 ft 161 kts 41°
2026-04-17 22:52 40.15185 33.01822 4861 ft 177 kts 41°
2026-04-17 22:52 40.16240 33.02934 5144 ft 210 kts 41°
2026-04-17 22:52 40.17450 33.04221 5383 ft 237 kts 41°
2026-04-17 22:53 40.18773 33.05633 5964 ft 251 kts 41°
2026-04-17 22:53 40.20219 33.06894 6928 ft 254 kts 21°
2026-04-17 22:53 40.21987 33.07109 7912 ft 262 kts 351°
2026-04-17 22:53 40.23700 33.06094 8560 ft 284 kts 321°
2026-04-17 22:54 40.25069 33.04175 9479 ft 291 kts 309°
2026-04-17 22:54 40.26320 33.02081 10468 ft 297 kts 307°
2026-04-17 22:54 40.27630 32.99847 10919 ft 321 kts 307°
2026-04-17 22:54 40.29023 32.97491 11702 ft 331 kts 308°
2026-04-17 22:55 40.30450 32.95113 12752 ft 334 kts 308°
2026-04-17 22:55 40.31899 32.92718 13825 ft 337 kts 308°
2026-04-17 22:55 40.33368 32.90295 14763 ft 342 kts 308°
2026-04-17 22:55 40.34751 32.87749 15699 ft 346 kts 296°
2026-04-17 22:56 40.35504 32.84738 16658 ft 350 kts 283°
2026-04-17 22:56 40.36062 32.81606 17617 ft 355 kts 282°
2026-04-17 22:56 40.36626 32.78429 18473 ft 361 kts 283°
2026-04-17 22:56 40.37211 32.75210 19329 ft 364 kts 283°
2026-04-17 22:57 40.37548 32.71922 20171 ft 367 kts 267°
2026-04-17 22:57 40.37019 32.68696 21031 ft 370 kts 248°
2026-04-17 22:57 40.35655 32.65828 21874 ft 376 kts 229°
2026-04-17 22:57 40.33617 32.63652 22648 ft 384 kts 210°
2026-04-17 22:58 40.31155 32.62234 23424 ft 389 kts 204°
2026-04-17 22:58 40.28612 32.60957 24038 ft 394 kts 202°
2026-04-17 22:58 40.26108 32.59501 24657 ft 395 kts 215°
2026-04-17 22:58 40.24124 32.57073 25389 ft 390 kts 235°
2026-04-17 22:59 40.22848 32.53985 26326 ft 383 kts 250°
2026-04-17 22:59 40.22288 32.50623 27232 ft 379 kts 264°
2026-04-17 22:59 40.22051 32.47183 27472 ft 376 kts 265°
2026-04-17 22:59 40.21883 32.43784 27709 ft 375 kts 266°
2026-04-17 23:00 40.21776 32.41475 27791 ft 379 kts 266°
2026-04-17 23:00 40.21613 32.38050 27785 ft 382 kts 266°
2026-04-17 23:00 40.21435 32.34592 27777 ft 380 kts 266°
2026-04-17 23:00 40.21246 32.31152 27784 ft 378 kts 265°
2026-04-17 23:01 40.21049 32.27725 27787 ft 377 kts 265°
2026-04-17 23:01 40.20847 32.24309 27785 ft 377 kts 265°
2026-04-17 23:01 40.20642 32.20883 27779 ft 377 kts 265°
2026-04-17 23:01 40.20435 32.17459 27781 ft 378 kts 265°
2026-04-17 23:02 40.20226 32.14034 27785 ft 378 kts 265°
2026-04-17 23:02 40.20016 32.10599 27787 ft 379 kts 265°
2026-04-17 23:02 40.19805 32.07156 27783 ft 380 kts 265°
2026-04-17 23:02 40.19593 32.03710 27781 ft 381 kts 265°
2026-04-17 23:03 40.19379 32.00261 27783 ft 381 kts 265°
2026-04-17 23:03 40.19165 31.96798 27602 ft 383 kts 265°
2026-04-17 23:03 40.18948 31.93330 27328 ft 382 kts 265°
2026-04-17 23:03 40.18731 31.89873 27063 ft 382 kts 265°
2026-04-17 23:04 40.18679 31.86399 26793 ft 384 kts 276°
2026-04-17 23:04 40.19040 31.82981 26559 ft 385 kts 278°
2026-04-17 23:04 40.19473 31.79526 26295 ft 386 kts 279°
2026-04-17 23:04 40.19917 31.76084 26044 ft 382 kts 279°
2026-04-17 23:05 40.20350 31.72670 25795 ft 379 kts 279°
2026-04-17 23:05 40.20773 31.69272 25554 ft 379 kts 278°
2026-04-17 23:05 40.21188 31.65868 25318 ft 378 kts 278°
2026-04-17 23:05 40.21596 31.62474 25076 ft 378 kts 278°
2026-04-17 23:06 40.22000 31.59076 24839 ft 377 kts 278°
2026-04-17 23:06 40.22399 31.55691 24599 ft 377 kts 278°
2026-04-17 23:06 40.22795 31.52305 24373 ft 376 kts 278°
2026-04-17 23:06 40.23189 31.48923 24140 ft 376 kts 278°
2026-04-17 23:07 40.23582 31.45543 23907 ft 375 kts 278°
2026-04-17 23:07 40.23972 31.42176 23678 ft 374 kts 278°
2026-04-17 23:07 40.24360 31.38820 23455 ft 373 kts 278°
2026-04-17 23:07 40.24745 31.35473 23207 ft 371 kts 278°
2026-04-17 23:08 40.25130 31.32131 22924 ft 370 kts 278°
2026-04-17 23:08 40.25504 31.28863 22525 ft 366 kts 278°
2026-04-17 23:08 40.25878 31.25598 22084 ft 360 kts 278°
2026-04-17 23:08 40.26244 31.22382 21620 ft 355 kts 278°
2026-04-17 23:09 40.26606 31.19203 21161 ft 351 kts 278°
2026-04-17 23:09 40.26963 31.16060 20705 ft 347 kts 278°
2026-04-17 23:09 40.27316 31.12941 20253 ft 344 kts 278°
2026-04-17 23:09 40.27665 31.09854 19795 ft 342 kts 278°
2026-04-17 23:10 40.28010 31.06790 19350 ft 339 kts 278°
2026-04-17 23:10 40.28352 31.03745 18904 ft 336 kts 278°
2026-04-17 23:10 40.28690 31.00726 18479 ft 334 kts 278°
2026-04-17 23:10 40.29026 30.97722 18037 ft 332 kts 278°
2026-04-17 23:11 40.29358 30.94738 17541 ft 330 kts 278°
2026-04-17 23:11 40.29465 30.93774 17395 ft 330 kts 278°
2026-04-17 23:11 40.29734 30.91343 17040 ft 327 kts 278°
2026-04-17 23:11 40.30062 30.88399 16602 ft 325 kts 278°
2026-04-17 23:12 40.30387 30.85477 16152 ft 324 kts 278°
2026-04-17 23:12 40.30710 30.82564 15723 ft 322 kts 278°
2026-04-17 23:12 40.31030 30.79663 15284 ft 321 kts 278°
2026-04-17 23:12 40.31348 30.76775 14865 ft 320 kts 278°
2026-04-17 23:13 40.31667 30.73890 14426 ft 319 kts 278°
2026-04-17 23:13 40.31986 30.71012 13987 ft 319 kts 278°
2026-04-17 23:13 40.32303 30.68142 13560 ft 318 kts 278°
2026-04-17 23:13 40.32621 30.65269 13077 ft 318 kts 278°
2026-04-17 23:14 40.32935 30.62412 12639 ft 316 kts 278°
2026-04-17 23:14 40.33248 30.59566 12231 ft 314 kts 278°
2026-04-17 23:14 40.33551 30.56806 11959 ft 308 kts 278°
2026-04-17 23:14 40.33854 30.54036 11563 ft 306 kts 278°
2026-04-17 23:15 40.34155 30.51269 11141 ft 306 kts 278°
2026-04-17 23:15 40.34455 30.48516 10728 ft 305 kts 278°
2026-04-17 23:15 40.34754 30.45758 10352 ft 304 kts 278°
2026-04-17 23:15 40.35046 30.43064 10241 ft 294 kts 278°
2026-04-17 23:16 40.35329 30.40452 10110 ft 284 kts 278°
2026-04-17 23:16 40.35600 30.37933 9952 ft 276 kts 278°
2026-04-17 23:16 40.35868 30.35448 9642 ft 275 kts 278°
2026-04-17 23:16 40.36134 30.32972 9306 ft 274 kts 278°
2026-04-17 23:17 40.36400 30.30498 8991 ft 274 kts 278°
2026-04-17 23:17 40.36665 30.28022 8670 ft 274 kts 278°
2026-04-17 23:17 40.36930 30.25551 8366 ft 273 kts 278°
2026-04-17 23:17 40.37191 30.23094 8052 ft 271 kts 278°
2026-04-17 23:18 40.37450 30.20655 7754 ft 269 kts 278°
2026-04-17 23:18 40.37651 30.18224 7451 ft 267 kts 268°
2026-04-17 23:18 40.37336 30.15844 7206 ft 264 kts 257°
2026-04-17 23:18 40.36897 30.13514 6900 ft 263 kts 256°
2026-04-17 23:19 40.36451 30.11196 6599 ft 262 kts 256°
2026-04-17 23:19 40.36009 30.08888 6324 ft 259 kts 256°
2026-04-17 23:19 40.35589 30.06667 6254 ft 242 kts 256°
2026-04-17 23:19 40.35201 30.04595 6133 ft 227 kts 257°
2026-04-17 23:20 40.34841 30.02650 6015 ft 213 kts 257°
2026-04-17 23:20 40.34502 30.00815 5928 ft 201 kts 257°
2026-04-17 23:20 40.34181 29.99075 5730 ft 197 kts 257°
2026-04-17 23:20 40.33860 29.97333 5512 ft 194 kts 257°
2026-04-17 23:21 40.33550 29.95650 5386 ft 185 kts 257°
2026-04-17 23:21 40.33250 29.94020 5302 ft 184 kts 257°
2026-04-17 23:21 40.32946 29.92375 5238 ft 187 kts 257°
2026-04-17 23:21 40.32638 29.90703 5149 ft 191 kts 257°
2026-04-17 23:22 40.32338 29.88989 4948 ft 193 kts 261°
2026-04-17 23:22 40.32102 29.87295 4764 ft 191 kts 259°
2026-04-17 23:22 40.31805 29.85615 4580 ft 188 kts 256°
2026-04-17 23:22 40.31476 29.83978 4394 ft 184 kts 255°
2026-04-17 23:23 40.31140 29.82376 4218 ft 180 kts 255°
2026-04-17 23:23 40.30818 29.80867 4169 ft 167 kts 255°
2026-04-17 23:23 40.30508 29.79414 3968 ft 164 kts 255°
2026-04-17 23:23 40.30203 29.77985 3752 ft 163 kts 255°
2026-04-17 23:24 40.29898 29.76559 3543 ft 162 kts 255°
2026-04-17 23:24 40.29596 29.75143 3333 ft 161 kts 255°
2026-04-17 23:24 40.29297 29.73737 3119 ft 159 kts 255°
2026-04-17 23:24 40.29003 29.72360 2904 ft 153 kts 255°
2026-04-17 23:25 40.28725 29.71052 2717 ft 146 kts 255°
2026-04-17 23:25 40.28454 29.69780 2517 ft 144 kts 255°
2026-04-17 23:25 40.28195 29.68562 2337 ft 135 kts 255°
2026-04-17 23:25 40.27949 29.67405 2164 ft 131 kts 256°
2026-04-17 23:26 40.27701 29.66237 2007 ft 134 kts 255°
2026-04-17 23:26 40.27453 29.65069 1847 ft 133 kts 255°
2026-04-17 23:26 40.27210 29.63921 1701 ft 132 kts 255°
2026-04-17 23:26 40.26961 29.62746 1537 ft 132 kts 255°
2026-04-17 23:27 40.26718 29.61591 1376 ft 131 kts 255°
2026-04-17 23:27 40.26481 29.60445 1183 ft 131 kts 255°
2026-04-17 23:27 40.26234 29.59286 1030 ft 133 kts 255°
2026-04-17 23:27 40.25985 29.58119 838 ft 133 kts 255°
2026-04-17 23:28 40.25746 29.56996 765 ft 123 kts 253°
2026-04-17 23:28 40.25544 29.56064 766 ft 88 kts 254°
2026-04-17 23:28 40.25411 29.55446 767 ft 53 kts 254°
2026-04-17 23:28 40.25336 29.55092 766 ft 37 kts 255°
2026-04-17 23:29 40.25269 29.54780 765 ft 28 kts 255°
2026-04-17 23:29 40.25242 29.54643 766 ft 12 kts 259°
2026-04-17 23:29 40.25261 29.54546 768 ft 12 kts 321°
2026-04-17 23:29 40.25341 29.54514 767 ft 13 kts 344°
2026-04-17 23:30 40.25420 29.54485 766 ft 6 kts 345°
2026-04-17 23:30 40.25453 29.54473 766 ft 5 kts 345°
2026-04-17 23:30 40.25491 29.54459 766 ft 5 kts 343°
2026-04-17 23:30 40.25519 29.54429 766 ft 5 kts 310°
2026-04-17 23:31 40.25541 29.54411 766 ft 4 kts 345°
2026-04-17 23:31 40.25559 29.54405 766 ft 2 kts 345°
2026-04-17 23:31 40.25568 29.54402 766 ft 1 kts 344°
2026-04-17 23:31 40.25570 29.54401 766 ft 0 kts 345°